星链-35618(STARLINK-35618)

导读

STARLINK-35618是美国太空探索技术公司(SpaceX)于2025年11月11日发射的星链(Starlink)低轨通信卫星。星链项目旨在为全球提供高速低延迟宽带互联网服务,该卫星采用平板设计,搭载霍尔推进器,支持Ku/Ka波段通信与激光星间链路,服务覆盖偏远地区通信、灾害应急响应等场景,设计寿命约5-7年,退役后将受控坠入大气层焚毁。

基本信息
目录编号:
66423
目录名称:
STARLINK-35618
国际标识:
2025-259B
轨道中心:
EARTH
卫星名称:
星链-35618
卫星全名:
星链-35618(STARLINK-35618)
卫星状态:
在轨 (已飞行297 天)
发射日期:
2025-11-11 UTC
国别 :
美国 (US)
星等 :
--
轨道信息
数据来源 国际轨道数据
星历时间: 2026-09-03T23:09:36+0800
19小时前
查看轨道信息
半长轴: 6861.147km
偏心率: 0.0002197
轨道倾角: 43.003°
近地点辐角 252.562°
升交点赤经 349.567°
平近点角 107.499°
近地点: 481.502km
远地点: 484.518km
周期: 94.266分钟
每日圈数: 15.275933
详细信息
固有亮度:
5
最大亮度:
2.5
卫星平台:
Starlink V1.0
覆盖范围:
全球
运营商:
太空探索技术公司
运营商所在国:
美国
制造商(研发单位):
太空探索技术公司
制造商所在国:
美国
使用方式:
暂无
卫星简介
Starlink 计划是 SpaceX 推出的全球卫星互联网项目,通过发射低轨道卫星,为全球尤其是偏远地区提供高速、低延迟的互联网服务。自 2019 年起,Starlink 已部署数千颗卫星,旨在缩小全球数字鸿沟,推动互联网普及。该项目还为军事、航空等行业提供通信支持,带来广泛经济效益。
2D轨道图
3D轨道图
轨道高度分析图
轨道倾角分析图
轨道综合分析图
查看轨道综合分析图
交会数据列表
事件ID 空间交会对象 最接近时刻(TCA) 交会距离 交会风险概率(CRP) 交会风险指数(CRI) 操作
CDM_260905-010905-637906-642321
2026-09-05T
01:09:26+0000
0.201 km
中距离
6.018008E-4 高风险 0.91
CDM_260905-052805-840206-642321
2026-09-05T
05:28:59+0000
0.910 km
远距离
2.779485E-5 中风险 0.64
CDM_260906-140805-935906-642321
2026-09-06T
14:08:39+0000
0.706 km
远距离
1.793785E-5 中风险 0.6
CDM_260905-035405-840206-642321
2026-09-05T
03:54:50+0000
1.053 km
极远距离
1.685945E-5 中风险 0.6
CDM_260906-114705-935906-642321
2026-09-06T
11:47:25+0000
1.042 km
极远距离
4.823361E-6 低风险 0.49
CDM_260905-091204-344106-642321
2026-09-05T
09:12:51+0000
2.145 km
极远距离
1.902628E-6 低风险 0.41
CDM_260904-233505-637906-642321
2026-09-04T
23:35:17+0000
1.993 km
极远距离
1.721118E-6 低风险 0.4
CDM_260903-214705-870206-642322
2026-09-03T
21:47:20+0000
2.365 km
极远距离
1.630076E-6 低风险 0.39
CDM_260905-024305-637906-642321
2026-09-05T
02:43:36+0000
2.359 km
极远距离
1.198139E-6 低风险 0.37
CDM_260906-154205-935906-642321
2026-09-06T
15:42:48+0000
1.638 km
极远距离
1.17879E-6 低风险 0.36